Weather History for KADM - September, 2011

Change the Weather History Date:

Thursday, September 1, 2011

  Actual Average Record
Temperature  
Mean Temperature 86 °F -  
Max Temperature 102 °F - - ()
Min Temperature 71 °F - - ()
Cooling Degree Days 22    
Growing Degree Days 36 (Base 50)    
Moisture  
Dew Point 58 °F    
Average Humidity 51    
Maximum Humidity 69    
Minimum Humidity 21    
Precipitation  
Precipitation 0.00 in - - ()
Sea Level Pressure  
Sea Level Pressure 29.95 in    
Wind  
Wind Speed 2 mph (SE)    
Max Wind Speed 10 mph    
Max Gust Speed -    
Visibility 10 miles    
Events      
T = Trace of Precipitation, MM = Missing Value Source: NWS Daily Summary

Daily Weather History Graph

Daily Weather History Graph

Search for Another Location

Airport or City:

Trip Planner

Search our weather history database for the weather conditions in past years. The results will help you decide how hot, cold, wet, or windy it might be!

Date:

Astronomy

Sep. 01, 2011 Rise Set
Actual Time 7:01 AM CDT 7:54 PM CDT
Civil Twilight 6:35 AM CDT 8:19 PM CDT
Nautical Twilight 6:05 AM CDT 8:50 PM CDT
Astronomical Twilight 5:33 AM CDT 9:21 PM CDT
Moon 11:07 AM CDT 10:02 PM CDT
Length of Visible Light 13h 44m
Length of Day
12h 53m
Waxing Crescent, 18% of the Moon is Illuminated
Sep 1
Waxing Crescent
Sep 4
First Quarter
Sep 12
Full
Sep 20
Last Quarter
Sep 27
New

Hourly Weather History & Observations

Time (CDT) Temp. Heat Index Dew Point Humidity Pressure Visibility Wind Dir Wind Speed Gust Speed Precip Events Conditions
12:15 AM 82.4 °F 81.7 °F 55.4 °F 39% 29.94 in 10.0 mi SE 3.5 mph - N/A   Clear
12:35 AM 82.4 °F 81.7 °F 55.4 °F 39% 29.94 in 10.0 mi SE 3.5 mph - N/A   Clear
12:55 AM 78.8 °F - 57.2 °F 47% 29.94 in 10.0 mi Calm Calm - N/A   Clear
1:15 AM 78.8 °F - 57.2 °F 47% 29.94 in 10.0 mi Calm Calm - N/A   Clear
1:55 AM 77.0 °F - 59.0 °F 54% 29.94 in 10.0 mi Calm Calm - N/A   Clear
2:15 AM 77.0 °F - 59.0 °F 54% 29.94 in 10.0 mi Calm Calm - N/A   Clear
2:35 AM 75.2 °F - 59.0 °F 57% 29.94 in 10.0 mi Calm Calm - N/A   Clear
2:55 AM 75.2 °F - 59.0 °F 57% 29.94 in 10.0 mi Calm Calm - N/A   Clear
3:15 AM 73.4 °F - 60.8 °F 65% 29.94 in 10.0 mi East 3.5 mph - N/A   Clear
3:35 AM 73.4 °F - 60.8 °F 65% 29.94 in 10.0 mi Calm Calm - N/A   Clear
4:15 AM 73.4 °F - 59.0 °F 61% 29.94 in 4.0 mi Calm Calm - N/A   Haze
4:35 AM 73.4 °F - 59.0 °F 61% 29.95 in 7.0 mi Calm Calm - N/A   Clear
4:55 AM 71.6 °F - 60.8 °F 69% 29.96 in 10.0 mi Calm Calm - N/A   Clear
5:15 AM 71.6 °F - 60.8 °F 69% 29.96 in 10.0 mi Calm Calm - N/A   Clear
5:35 AM 71.6 °F - 60.8 °F 69% 29.97 in 10.0 mi East 3.5 mph - N/A   Clear
5:55 AM 71.6 °F - 60.8 °F 69% 29.97 in 10.0 mi Calm Calm - N/A   Clear
6:35 AM 71.6 °F - 60.8 °F 69% 29.98 in 10.0 mi Calm Calm - N/A   Clear
7:55 AM 78.8 °F - 62.6 °F 57% 30.00 in 10.0 mi SSE 3.5 mph - N/A   Clear
8:55 AM 84.2 °F 84.4 °F 60.8 °F 45% 30.01 in 10.0 mi South 4.6 mph - N/A   Clear
9:55 AM 91.4 °F 90.7 °F 59.0 °F 34% 30.02 in 10.0 mi SSW 8.1 mph - N/A   Clear
1:55 PM 102.2 °F 102.4 °F 59.0 °F 24% 29.96 in 10.0 mi SE 10.4 mph - N/A   Clear
5:55 PM 100.4 °F 98.4 °F 53.6 °F 21% 29.90 in 10.0 mi SSE 6.9 mph - N/A   Clear
6:55 PM 96.8 °F 94.4 °F 53.6 °F 23% 29.89 in 10.0 mi SE 6.9 mph - N/A   Clear
9:55 PM 80.6 °F 80.5 °F 55.4 °F 42% 29.92 in 10.0 mi ESE 3.5 mph - N/A   Clear
10:15 PM 78.8 °F - 55.4 °F 44% 29.92 in 10.0 mi Calm Calm - N/A   Clear
10:35 PM 77.0 °F - 55.4 °F 47% 29.92 in 10.0 mi Calm Calm - N/A   Clear
10:55 PM 78.8 °F - 55.4 °F 44% 29.92 in 10.0 mi Calm Calm - N/A   Clear
11:15 PM 77.0 °F - 55.4 °F 47% 29.92 in 10.0 mi Calm Calm - N/A   Clear
11:35 PM 73.4 °F - 55.4 °F 53% 29.92 in 10.0 mi Calm Calm - N/A   Clear
11:55 PM 73.4 °F - 55.4 °F 53% 29.93 in 10.0 mi Calm Calm - N/A   Clear